WA9NNN-10 Weather Reports


Display with metric or nautical units.
time (UTC)temp
F
wind
direction
speed
MPH
gust
MPH
rain 1hr
in
rain 24hr
in
rain mn
in
humidity
%
barometer
mb
20260510105636 45 0 0.0 0.0 0.00 0.00 0.00 67 1016.5
20260510105137 45 58 1.0 0.0 0.00 0.00 0.00 65 1016.3
20260510104636 45 0 0.0 0.0 0.00 0.00 0.00 64 1016.3
20260510104137 46 0 0.0 0.0 0.00 0.00 0.00 63 1016.3
20260510103636 46 0 0.0 0.0 0.00 0.00 0.00 63 1016.3
20260510103138 46 0 0.0 0.0 0.00 0.00 0.00 63 1016.2
20260510102636 46 0 0.0 0.0 0.00 0.00 0.00 63 1016.1
20260510102137 47 0 0.0 0.0 0.00 0.00 0.00 63 1016.0
20260510101636 47 0 0.0 0.0 0.00 0.00 0.00 64 1016.0
20260510101138 47 0 0.0 0.0 0.00 0.00 0.00 64 1015.8
20260510100637 47 0 0.0 0.0 0.00 0.00 0.00 63 1015.7
20260510100137 47 0 0.0 1.0 0.00 0.00 0.00 63 1015.7
20260510095636 47 58 1.0 1.0 0.00 0.00 0.00 62 1015.6
20260510095137 47 0 0.0 1.0 0.00 0.00 0.00 62 1015.5
20260510094636 48 0 0.0 1.0 0.00 0.00 0.00 62 1015.4
20260510094138 48 58 1.0 0.0 0.00 0.00 0.00 61 1015.4
20260510093636 48 0 0.0 0.0 0.00 0.00 0.00 60 1015.5
20260510093137 48 0 0.0 0.0 0.00 0.00 0.00 60 1015.6
20260510092636 48 0 0.0 1.0 0.00 0.00 0.00 60 1015.5
20260510092137 48 0 0.0 1.0 0.00 0.00 0.00 59 1015.5
20260510091637 48 58 1.0 2.0 0.00 0.00 0.00 59 1015.5
20260510091137 48 63 1.0 1.0 0.00 0.00 0.00 59 1015.5
20260510090636 48 62 1.0 2.0 0.00 0.00 0.00 59 1015.4
20260510090137 49 47 1.0 1.0 0.00 0.00 0.00 59 1015.3
20260510085636 49 63 1.0 1.0 0.00 0.00 0.00 59 1015.2
20260510085137 49 50 1.0 1.0 0.00 0.00 0.00 58 1015.2
20260510084636 49 23 1.0 1.0 0.00 0.00 0.00 58 1015.2
20260510084137 49 25 1.0 1.0 0.00 0.00 0.00 58 1015.1
20260510083636 49 26 2.0 1.0 0.00 0.00 0.00 58 1015.2
20260510083137 49 32 2.0 2.0 0.00 0.00 0.00 58 1015.1
20260510082636 49 67 1.0 2.0 0.00 0.00 0.00 58 1015.0
20260510082137 49 23 3.0 2.0 0.00 0.00 0.00 58 1014.9
20260510081637 49 56 1.0 3.0 0.00 0.00 0.00 58 1014.8
20260510081137 49 47 3.0 3.0 0.00 0.00 0.00 58 1014.7
20260510080636 49 49 8.0 3.0 0.00 0.00 0.00 58 1014.6
20260510080137 49 50 2.0 3.0 0.00 0.00 0.00 58 1014.5
20260510075637 49 43 4.0 3.0 0.00 0.00 0.00 58 1014.3
20260510075137 49 347 3.0 3.0 0.00 0.00 0.00 58 1014.3
20260510074637 49 30 3.0 3.0 0.00 0.00 0.00 58 1014.3
20260510074137 49 65 5.0 3.0 0.00 0.00 0.00 58 1014.4
20260510073636 49 44 7.0 4.0 0.00 0.00 0.00 58 1014.3
20260510073137 49 60 1.0 4.0 0.00 0.00 0.00 58 1014.2
20260510072636 49 8 3.0 4.0 0.00 0.00 0.00 57 1014.2
20260510072137 49 53 4.0 4.0 0.00 0.00 0.00 57 1014.0
20260510071637 50 1 4.0 4.0 0.00 0.00 0.00 56 1014.0
20260510071137 50 19 3.0 4.0 0.00 0.00 0.00 56 1013.9
20260510070636 50 32 3.0 4.0 0.00 0.00 0.00 57 1013.8
20260510070137 50 360 8.0 3.0 0.00 0.00 0.00 59 1013.8
20260510065637 50 68 3.0 3.0 0.00 0.00 0.00 61 1013.7
20260510065136 50 335 4.0 2.0 0.00 0.00 0.00 62 1013.6
20260510064636 50 31 1.0 2.0 0.00 0.00 0.00 62 1013.6
20260510064137 50 359 1.0 3.0 0.00 0.00 0.00 63 1013.5
20260510063636 51 359 1.0 4.0 0.00 0.00 0.00 64 1013.5
20260510063137 51 352 4.0 3.0 0.00 0.00 0.00 64 1013.5
20260510062636 51 359 4.0 2.0 0.00 0.00 0.00 64 1013.4
20260510062137 51 359 1.0 2.0 0.00 0.00 0.00 64 1013.3
20260510061636 51 43 3.0 2.0 0.00 0.00 0.00 64 1013.3
20260510061137 51 359 2.0 1.0 0.00 0.00 0.00 65 1013.2
20260510060636 51 1 1.0 1.0 0.00 0.00 0.00 65 1013.2
20260510060137 51 14 1.0 1.0 0.00 0.00 0.00 65 1013.0
20260510055636 51 20 2.0 1.0 0.00 0.00 0.00 66 1013.0
20260510055136 51 20 1.0 0.0 0.00 0.00 0.00 66 1012.9
20260510054636 50 0 0.0 1.0 0.00 0.00 0.00 66 1012.8
20260510054137 50 0 0.0 2.0 0.00 0.00 0.00 66 1012.7
20260510053636 50 76 3.0 1.0 0.00 0.00 0.00 67 1012.7
20260510053137 50 55 1.0 0.0 0.00 0.00 0.00 66 1012.4
20260510052636 50 0 0.0 0.0 0.00 0.00 0.00 65 1012.2
20260510052137 50 0 0.0 0.0 0.00 0.00 0.00 65 1012.0
20260510051636 50 0 0.0 0.0 0.00 0.00 0.00 65 1011.9
20260510051136 50 0 0.0 0.0 0.00 0.00 0.00 65 1011.9
20260510050636 51 0 0.0 0.0 0.00 0.00 0.00 64 1011.8
20260510050137 51 0 0.0 0.0 0.00 0.00 0.00 64 1011.9
20260510045637 51 0 0.0 0.0 0.00 0.00 0.00 64 1011.8
20260510045136 51 0 0.0 0.0 0.00 0.00 0.00 64 1011.7
20260510044636 51 0 0.0 0.0 0.00 0.00 0.00 64 1011.6
20260510044136 51 0 0.0 0.0 0.00 0.00 0.00 63 1011.5
20260510043636 51 0 0.0 0.0 0.00 0.00 0.00 62 1011.4
20260510043137 51 0 0.0 0.0 0.00 0.00 0.00 62 1011.4
20260510042636 52 0 0.0 0.0 0.00 0.00 0.00 62 1011.3
20260510042136 52 0 0.0 0.0 0.00 0.00 0.00 62 1011.2
20260510041636 52 0 0.0 0.0 0.00 0.00 0.00 61 1011.1
20260510041137 52 0 0.0 0.0 0.00 0.00 0.00 61 1011.1
20260510040636 52 0 0.0 0.0 0.00 0.00 0.00 60 1011.0
20260510040137 52 0 0.0 0.0 0.00 0.00 0.00 60 1011.0
20260510035636 52 0 0.0 0.0 0.00 0.00 0.00 60 1011.0
20260510035136 52 0 0.0 0.0 0.00 0.00 0.00 60 1010.9
20260510034636 52 0 0.0 0.0 0.00 0.00 0.00 60 1011.0
20260510034136 53 60 1.0 0.0 0.00 0.00 0.00 60 1010.9
20260510033636 53 0 0.0 0.0 0.00 0.00 0.00 59 1010.9
20260510033137 53 0 0.0 0.0 0.00 0.00 0.00 58 1010.9
20260510032636 53 0 0.0 0.0 0.00 0.00 0.00 58 1010.8
20260510032137 53 0 0.0 0.0 0.00 0.00 0.00 58 1010.8
20260510031636 53 0 0.0 0.0 0.00 0.00 0.00 57 1010.8
20260510031136 53 0 0.0 0.0 0.00 0.00 0.00 57 1010.7
20260510030636 54 0 0.0 0.0 0.00 0.00 0.00 56 1010.6
20260510030137 54 0 0.0 0.0 0.00 0.00 0.00 55 1010.6
20260510025636 54 0 0.0 0.0 0.00 0.00 0.00 56 1010.5
20260510025137 54 0 0.0 0.0 0.00 0.00 0.00 55 1010.3
20260510024636 54 60 2.0 0.0 0.00 0.00 0.00 55 1010.3
20260510024137 54 0 0.0 0.0 0.00 0.00 0.00 55 1010.2
20260510023636 54 0 0.0 0.0 0.00 0.00 0.00 55 1010.1
20260510023138 54 60 1.0 0.0 0.00 0.00 0.00 55 1010.0
20260510022637 55 0 0.0 1.0 0.00 0.00 0.00 54 1009.9
20260510022136 55 0 0.0 2.0 0.00 0.00 0.00 54 1009.7
20260510021636 55 53 1.0 1.0 0.00 0.00 0.00 54 1009.6
20260510021136 55 70 4.0 1.0 0.00 0.00 0.00 54 1009.5
20260510020636 55 0 0.0 1.0 0.00 0.00 0.00 54 1009.3
20260510020137 55 74 1.0 2.0 0.00 0.00 0.00 54 1009.3
20260510015636 55 15 1.0 2.0 0.00 0.00 0.00 53 1009.2
20260510015136 55 68 3.0 2.0 0.00 0.00 0.00 54 1009.0
20260510014636 55 359 1.0 2.0 0.00 0.00 0.00 54 1008.7
20260510014136 55 1 3.0 2.0 0.00 0.00 0.00 54 1008.5
20260510013636 55 70 3.0 2.0 0.00 0.00 0.00 53 1008.4
20260510013137 56 40 3.0 2.0 0.00 0.00 0.00 53 1008.3
20260510012636 56 360 2.0 2.0 0.00 0.00 0.00 53 1008.2
20260510012137 56 33 2.0 3.0 0.00 0.00 0.00 53 1008.1
20260510011636 56 61 5.0 4.0 0.00 0.00 0.00 52 1008.0
20260510011136 56 360 2.0 4.0 0.00 0.00 0.00 52 1007.9
20260510010637 57 76 3.0 4.0 0.00 0.00 0.00 51 1007.7
20260510010138 57 57 5.0 3.0 0.00 0.00 0.00 50 1007.7
20260510005636 57 71 4.0 3.0 0.00 0.00 0.00 50 1007.6
20260510005138 58 77 3.0 3.0 0.00 0.00 0.00 50 1007.6
20260510004636 58 68 4.0 3.0 0.00 0.00 0.00 50 1007.5
20260510004137 58 71 3.0 5.0 0.00 0.00 0.00 49 1007.4
20260510003636 58 352 5.0 5.0 0.00 0.00 0.00 48 1007.4
20260510003136 59 65 7.0 5.0 0.00 0.00 0.00 47 1007.2
20260510002636 59 51 5.0 4.0 0.00 0.00 0.00 46 1007.1
20260510002136 60 78 4.0 4.0 0.00 0.00 0.00 46 1007.0
20260510001636 60 96 5.0 4.0 0.00 0.00 0.00 46 1006.8
20260510001137 60 26 5.0 4.0 0.00 0.00 0.00 45 1006.8
20260510000637 61 56 3.0 5.0 0.00 0.00 0.00 45 1006.6
20260510000137 61 357 4.0 6.0 0.00 0.00 0.00 44 1006.5
20260509235637 62 1 4.0 6.0 0.00 0.00 0.00 44 1006.4
20260509235138 63 70 4.0 6.0 0.00 0.00 0.00 41 1006.4
20260509234637 64 3 8.0 6.0 0.00 0.00 0.00 40 1006.3
20260509234137 65 49 7.0 5.0 0.00 0.00 0.00 40 1006.1
20260509233637 66 44 5.0 5.0 0.00 0.00 0.00 39 1005.9
20260509233137 68 326 5.0 6.0 0.00 0.00 0.00 38 1005.8
20260509232637 70 20 4.0 7.0 0.00 0.00 0.00 36 1005.7
20260509232137 72 70 9.0 8.0 0.00 0.00 0.00 33 1005.7
20260509231637 72 288 13.0 6.0 0.00 0.00 0.00 31 1005.4
20260509231138 72 280 2.0 7.0 0.00 0.00 0.00 31 1005.2
20260509230637 73 266 4.0 7.0 0.00 0.00 0.00 31 1005.0
20260509230139 73 262 4.0 7.0 0.00 0.00 0.00 31 1005.0
20260509225637 73 278 6.0 8.0 0.00 0.00 0.00 31 1004.8
20260509225137 73 337 11.0 8.0 0.00 0.00 0.00 30 1004.7
20260509224637 73 341 10.0 9.0 0.00 0.00 0.00 30 1004.7
20260509224138 73 314 17.0 8.0 0.00 0.00 0.00 30 1004.8
20260509223637 74 279 9.0 7.0 0.00 0.00 0.00 29 1004.5
20260509223137 74 248 14.0 7.0 0.00 0.00 0.00 30 1004.6
20260509222637 74 248 8.0 7.0 0.00 0.00 0.00 30 1004.4
20260509222137 75 317 8.0 6.0 0.00 0.00 0.00 30 1004.4
20260509221638 75 252 6.0 6.0 0.00 0.00 0.00 30 1004.1
20260509221137 75 269 8.0 6.0 0.00 0.00 0.00 29 1004.1
20260509220637 75 253 4.0 6.0 0.00 0.00 0.00 29 1004.0
20260509220137 75 263 6.0 7.0 0.00 0.00 0.00 28 1003.9
20260509215637 75 233 5.0 7.0 0.00 0.00 0.00 29 1003.8
20260509215137 76 243 5.0 8.0 0.00 0.00 0.00 29 1003.7
20260509214637 76 271 9.0 7.0 0.00 0.00 0.00 30 1003.6
20260509214137 77 271 7.0 6.0 0.00 0.00 0.00 30 1003.5
20260509213637 77 314 5.0 5.0 0.00 0.00 0.00 30 1003.5
20260509213138 76 232 3.0 6.0 0.00 0.00 0.00 30 1003.5
20260509212636 76 295 2.0 6.0 0.00 0.00 0.00 29 1003.3
20260509212137 76 274 4.0 6.0 0.00 0.00 0.00 30 1003.3
20260509211637 76 321 10.0 5.0 0.00 0.00 0.00 30 1003.3
20260509211139 75 191 4.0 6.0 0.00 0.00 0.00 30 1003.2
20260509210637 75 266 4.0 9.0 0.00 0.00 0.00 30 1003.2
20260509210137 75 292 13.0 9.0 0.00 0.00 0.00 30 1003.3
20260509205637 76 247 9.0 7.0 0.00 0.00 0.00 30 1003.2
20260509205137 76 296 12.0 6.0 0.00 0.00 0.00 30 1003.2
20260509204637 76 240 3.0 6.0 0.00 0.00 0.00 30 1003.2
20260509204138 76 240 10.0 7.0 0.00 0.00 0.00 30 1003.2
20260509203637 77 276 7.0 6.0 0.00 0.00 0.00 29 1003.1
20260509203137 77 247 6.0 6.0 0.00 0.00 0.00 29 1003.2
20260509202636 77 253 2.0 6.0 0.00 0.00 0.00 30 1003.2
20260509202137 77 238 5.0 6.0 0.00 0.00 0.00 29 1003.3
20260509201636 77 312 4.0 5.0 0.00 0.00 0.00 30 1003.3
20260509201137 77 232 6.0 6.0 0.00 0.00 0.00 29 1003.3
20260509200637 77 254 7.0 6.0 0.00 0.00 0.00 30 1003.4
20260509200137 77 298 13.0 7.0 0.00 0.00 0.00 29 1003.6
20260509195636 76 243 4.0 8.0 0.00 0.00 0.00 30 1003.5
20260509195137 76 275 7.0 7.0 0.00 0.00 0.00 30 1003.4
20260509194636 76 271 4.0 6.0 0.00 0.00 0.00 30 1003.6
20260509194137 76 281 5.0 6.0 0.00 0.00 0.00 30 1003.5
20260509193637 75 243 4.0 6.0 0.00 0.00 0.00 30 1003.6
20260509193137 76 248 8.0 5.0 0.00 0.00 0.00 29 1003.6
20260509192636 76 252 4.0 5.0 0.00 0.00 0.00 28 1003.5
20260509192137 76 265 4.0 5.0 0.00 0.00 0.00 29 1003.5
20260509191637 75 225 10.0 5.0 0.00 0.00 0.00 29 1003.4
20260509191137 76 224 7.0 5.0 0.00 0.00 0.00 29 1003.5
20260509190636 76 184 9.0 5.0 0.00 0.00 0.00 28 1003.4
20260509190137 77 243 4.0 5.0 0.00 0.00 0.00 28 1003.4
20260509185637 77 232 1.0 5.0 0.00 0.00 0.00 27 1003.2
20260509185137 78 301 7.0 5.0 0.00 0.00 0.00 28 1003.4
20260509184637 78 217 4.0 5.0 0.00 0.00 0.00 28 1003.4
20260509184137 77 210 9.0 4.0 0.00 0.00 0.00 29 1003.3
20260509183637 76 302 6.0 5.0 0.00 0.00 0.00 30 1003.3
20260509183137 75 326 2.0 5.0 0.00 0.00 0.00 30 1003.3
20260509182637 75 222 4.0 4.0 0.00 0.00 0.00 30 1003.3
20260509182137 75 199 5.0 4.0 0.00 0.00 0.00 30 1003.5
20260509181637 75 270 1.0 4.0 0.00 0.00 0.00 30 1003.6
20260509181137 75 243 7.0 3.0 0.00 0.00 0.00 31 1003.5
20260509180637 74 210 3.0 5.0 0.00 0.00 0.00 31 1003.5
20260509180137 74 266 3.0 6.0 0.00 0.00 0.00 30 1003.6
20260509175636 75 346 8.0 6.0 0.00 0.00 0.00 30 1003.5
20260509175137 75 352 10.0 7.0 0.00 0.00 0.00 31 1003.6
20260509174636 75 294 9.0 7.0 0.00 0.00 0.00 31 1003.5
20260509174137 74 313 10.0 6.0 0.00 0.00 0.00 31 1003.6
20260509173636 74 349 3.0 6.0 0.00 0.00 0.00 32 1003.7
20260509173137 75 287 5.0 6.0 0.00 0.00 0.00 33 1003.7
20260509172636 75 297 8.0 5.0 0.00 0.00 0.00 34 1003.6
20260509172137 76 307 8.0 5.0 0.00 0.00 0.00 41 1003.7
20260509171637 76 290 2.0 4.0 0.00 0.00 0.00 44 1003.6
20260509171137 75 244 5.0 5.0 0.00 0.00 0.00 43 1003.7
20260509170637 74 245 6.0 4.0 0.00 0.00 0.00 44 1003.7
20260509170137 74 267 3.0 4.0 0.00 0.00 0.00 44 1003.8
20260509165636 74 277 5.0 5.0 0.00 0.00 0.00 45 1003.8
20260509165137 74 233 3.0 4.0 0.00 0.00 0.00 45 1003.8
20260509164637 75 247 3.0 4.0 0.00 0.00 0.00 46 1003.7
20260509164137 74 247 4.0 4.0 0.00 0.00 0.00 45 1003.8
20260509163636 73 227 6.0 4.0 0.00 0.00 0.00 47 1003.8
20260509163137 73 246 5.0 4.0 0.00 0.00 0.00 48 1003.8
20260509162638 72 314 2.0 4.0 0.00 0.00 0.00 50 1003.9
20260509162137 71 219 6.0 4.0 0.00 0.00 0.00 53 1004.0
20260509161636 71 215 4.0 5.0 0.00 0.00 0.00 53 1004.0
20260509161137 70 251 5.0 4.0 0.00 0.00 0.00 54 1003.9
20260509160636 70 170 7.0 5.0 0.00 0.00 0.00 54 1003.7
20260509160137 69 1 3.0 6.0 0.00 0.00 0.00 55 1003.8
20260509155636 69 221 8.0 6.0 0.00 0.00 0.00 57 1003.8
20260509155137 68 231 6.0 6.0 0.00 0.00 0.00 56 1003.8
20260509154637 68 225 7.0 6.0 0.00 0.00 0.00 57 1003.7
20260509154137 68 197 6.0 5.0 0.00 0.00 0.00 57 1003.7
20260509153637 68 218 9.0 5.0 0.00 0.00 0.00 56 1003.7
20260509153137 69 255 4.0 5.0 0.00 0.00 0.00 56 1003.6
20260509152636 70 199 9.0 4.0 0.00 0.00 0.00 56 1003.6
20260509152137 69 185 6.0 4.0 0.00 0.00 0.00 58 1003.7
20260509151636 69 189 5.0 3.0 0.00 0.00 0.00 59 1003.7
20260509151137 68 237 2.0 4.0 0.00 0.00 0.00 61 1003.8
20260509150636 67 224 2.0 4.0 0.00 0.00 0.00 62 1003.8
20260509150136 66 229 4.0 5.0 0.00 0.00 0.00 63 1003.7
20260509145636 66 228 9.0 6.0 0.00 0.00 0.00 64 1003.7
20260509145137 65 215 8.0 6.0 0.00 0.00 0.00 65 1003.6
20260509144636 65 160 10.0 4.0 0.00 0.00 0.00 65 1003.6
20260509144136 65 224 7.0 4.0 0.00 0.00 0.00 67 1003.7
20260509143637 64 221 2.0 5.0 0.00 0.00 0.00 68 1003.8
20260509143137 64 230 4.0 5.0 0.00 0.00 0.00 69 1003.7
20260509142636 63 200 6.0 6.0 0.00 0.00 0.00 69 1003.6
20260509142136 63 223 5.0 5.0 0.00 0.00 0.00 69 1003.6
20260509141636 63 214 7.0 5.0 0.00 0.00 0.00 70 1003.6
20260509141137 62 226 5.0 4.0 0.00 0.00 0.00 71 1003.6
20260509140636 62 209 6.0 4.0 0.00 0.00 0.00 72 1003.7
20260509140137 62 269 5.0 4.0 0.00 0.00 0.00 72 1003.7
20260509135636 61 281 2.0 5.0 0.00 0.00 0.00 73 1003.5
20260509135137 61 221 5.0 5.0 0.00 0.00 0.00 73 1003.3
20260509134638 61 205 5.0 5.0 0.00 0.00 0.00 74 1003.4
20260509134136 60 231 6.0 5.0 0.00 0.00 0.00 74 1003.3
20260509133637 60 210 4.0 4.0 0.00 0.00 0.00 75 1003.4
20260509133136 60 180 5.0 4.0 0.00 0.00 0.00 76 1003.8
20260509132636 59 233 2.0 4.0 0.00 0.00 0.00 77 1003.8
20260509132136 59 236 5.0 4.0 0.00 0.00 0.00 78 1003.7
20260509131636 59 224 2.0 4.0 0.00 0.00 0.00 79 1003.7
20260509131136 58 245 2.0 4.0 0.00 0.00 0.00 80 1003.8
20260509130636 58 229 3.0 4.0 0.00 0.00 0.00 81 1003.7
20260509130137 57 238 3.0 5.0 0.00 0.00 0.00 81 1003.6
20260509125636 57 210 4.0 4.0 0.00 0.00 0.00 83 1003.6
20260509125137 57 234 5.0 4.0 0.00 0.00 0.00 83 1003.6
20260509124636 56 211 6.0 4.0 0.00 0.00 0.00 84 1003.7
20260509124137 56 235 10.0 4.0 0.00 0.00 0.00 85 1003.8
20260509123636 56 173 2.0 4.0 0.00 0.00 0.00 85 1003.7
20260509123137 55 216 6.0 4.0 0.00 0.00 0.00 86 1003.7
20260509122636 55 179 3.0 4.0 0.00 0.00 0.00 86 1003.6
20260509122136 55 223 3.0 4.0 0.00 0.00 0.00 87 1003.7
20260509121636 55 209 7.0 4.0 0.00 0.00 0.00 87 1003.6
20260509121136 54 217 4.0 3.0 0.00 0.00 0.00 87 1003.7
20260509120636 54 199 3.0 3.0 0.00 0.00 0.00 87 1003.7
20260509120137 54 212 2.0 4.0 0.00 0.00 0.00 87 1003.7
20260509115636 54 203 3.0 4.0 0.00 0.00 0.00 87 1003.6
20260509115136 54 220 4.0 4.0 0.00 0.00 0.00 88 1003.6
20260509114636 54 175 4.0 3.0 0.00 0.00 0.00 87 1003.5
20260509114136 54 212 2.0 3.0 0.00 0.00 0.00 87 1003.4
20260509113636 54 191 1.0 2.0 0.00 0.00 0.00 87 1003.4
20260509113137 54 200 4.0 2.0 0.00 0.00 0.00 87 1003.4
20260509112636 54 0 0.0 2.0 0.00 0.00 0.00 87 1003.5
20260509112137 54 231 2.0 2.0 0.00 0.00 0.00 87 1003.4
20260509111636 54 210 2.0 3.0 0.00 0.00 0.00 87 1003.3
20260509111136 54 219 4.0 4.0 0.00 0.00 0.00 87 1003.0
20260509110637 54 218 6.0 4.0 0.00 0.00 0.00 87 1003.0
20260509110136 54 221 1.0 4.0 0.00 0.00 0.00 87 1002.8